Feng Yun 1C

operational
NORAD ID: 25730 Int'l Des: 1999-025 Owner: NSMC Country: CN
LEOCIRCULARRETROGRADESSO

Über Feng Yun 1C

Beschreibung wird geladen...

Live-Position

3D-Globus wird geladen...

Nächste Überflüge

Höhenverlauf

Altitude vs Time

uPlot chart will show altitude changes over time

Zweizeiliger Elementsatz

1 25730U 99025A 26062.13454046 .00002623 00000-0 11042-2 0 9998
2 25730 98.8710 134.2636 0011765 186.6958 173.4066 14.26614971382832
Epoch: 3. März 2026 • Age: 26 hours

Aktueller Status

Höhe 801.8 km
Geschwindigkeit 7.46 km/s
Subsatellitenpunkt -18.02°S, 119.93°E
Startdatum 10. Mai 1999
Alter 26.8 years
Typ other

Technische Details

Klassifizierung Payload
Masse 958.00 kg
Trockenmasse 958.00 kg
Gesamtmasse 958.00 kg
Länge 1.40 m
Durchmesser 1.40 m
Spannweite 8.60 m
Form Box + 2 Pan
Hersteller SISE
Bus-Typ FY-1
Phasenstatus Collided
Besitzer/Staat NSMC/CN

Große Konstellationen

Loading constellations...